Regional Weather Roundup
Issued by NWS

Home | Current Version | Previous Version | Text Only | Print | Product List | Glossary On
Versions: 1 2 3 4 5 6 7 8 9 10 11 12 13 14 15 16 17 18 19 20 21 22 23 24 25 26 27 28 29 30 31 32 33 34 35 36 37 38 39 40 41 42 43 44 45 46 47 48 49 50
787
ASUS45 KPSR 300510
RWRAZ

ARIZONA HOURLY REGIONAL WEATHER ROUNDUP
NATIONAL WEATHER SERVICE PHOENIX AZ
1000 PM MST FRI JUL 29 2016

NOTE: FAIR INDICATES FEW OR NO CLOUDS BELOW 12,000 FEET WITH NO
SIGNIFICANT WEATHER AND/OR OBSTRUCTIONS TO VISIBILITY.

AZZ001>003-036-300600-
NORTHWEST ARIZONA

CITY           SKY/WX    TMP DP  RH WIND       PRES   REMARKS
BULLHEAD CITY  CLOUDY   106  55  18 SW5       29.64S HX 105
KINGMAN        CLOUDY    95  53  24 SW10      29.91S
$$

AZZ004>008-015-016-018-300600-
NORTH CENTRAL ARIZONA

CITY           SKY/WX    TMP DP  RH WIND       PRES   REMARKS
GRAND CANYON   CLOUDY    67  52  58 CALM      30.24S
WILLIAMS       CLOUDY    70  45  40 SW7       30.30F
PRESCOTT       CLOUDY    76  56  49 S9        30.08F
FLAGSTAFF      CLOUDY    66  47  50 SW8       30.26S
PAYSON         CLOUDY    72  59  64 NE5       30.17F
PAGE           MOCLDY    91  41  17 W6        29.96R
$$

AZZ009>014-017-300600-
NORTHEAST ARIZONA

CITY           SKY/WX    TMP DP  RH WIND       PRES   REMARKS
WINSLOW        CLOUDY    82  46  28 SW17G24   30.07S
SAINT JOHNS    CLOUDY    73  47  39 S3        30.17R
WINDOW ROCK    MOCLDY    68  47  46 SE6       30.25S
SHOW LOW       CLOUDY    66  50  55 SW12      30.25R
$$

AZZ023-300600-
GREATER PHOENIX AREA

CITY           SKY/WX    TMP DP  RH WIND       PRES   REMARKS
PHOENIX        TSTM      79  68  69 S26G38    29.91R
LUKE AFB       PTCLDY    81  66  61 SE16      29.91
DEER VALLEY    CLOUDY    83  64  52 S18G26    29.90R
SCOTTSDALE     CLOUDY    80  68  66 SE12      29.93R
MESA-GATEWAY   CLOUDY    79  70  73 S16G22    29.97R
$$

AZZ027-028-300600-
SOUTHWEST MARICOPA COUNTY AND PINAL COUNTY

CITY           SKY/WX    TMP DP  RH WIND       PRES   REMARKS
CASA GRANDE    CLOUDY    79  70  73 NW7       30.01R
GILA BEND      TSTM      72  70  94 E31G48    30.00R VSB 1/2
$$

AZZ503-504-507>509-300600-
SOUTHEAST ARIZONA

CITY           SKY/WX    TMP DP  RH WIND       PRES   REMARKS
TUCSON         CLOUDY    78  67  68 E7        30.02R
DAVIS-MONTHAN  CLOUDY    76  68  75 E5        29.99R
NOGALES        CLOUDY    72  63  73 SE5       30.06R
SIERRA VISTA   CLOUDY    74  58  58 W10       30.13R
DOUGLAS        CLOUDY    79  53  40 N22G29    30.04R
SAFFORD        CLOUDY    85  53  33 NW10      29.95F
$$

AZZ020-021-025-026-031-300600-
SOUTHWEST ARIZONA

CITY           SKY/WX    TMP DP  RH WIND       PRES   REMARKS
YUMA           PTCLDY    92  71  50 S12       29.68R
$$

CAZ031-033-041-043-047-048-061-300600-
SOUTHERN CALIFORNIA

CITY           SKY/WX    TMP DP  RH WIND       PRES   REMARKS
DOWNTOWN L.A.  CLEAR     72  61  68 W3        29.81R
L.A. AIRPORT   CLEAR     70  62  76 W8        29.82R
SAN DIEGO      PTCLDY    68  64  87 S5        29.85R
BURBANK        CLEAR     76  58  53 SE10      29.82R
ONTARIO        PTCLDY    78  60  53 W7        29.84R
RIVERSIDE      CLEAR     79  60  52 W7        29.83R
PALM SPRINGS   CLEAR    102  64  28 NE6       29.70R HX 105
EL CENTRO NAS  CLEAR     94  71  47 SE13      29.66R HX 101
IMPERIAL       CLEAR     95  72  47 SE16      29.64R HX 103
BLYTHE         CLEAR     98  69  38 S17       29.67R HX 104
NEEDLES        CLOUDY   109  57  18 SW9       29.66S HX 109
$$

NVZ020-UTZ003-300600-
SOUTHERN NEVADA-UTAH

CITY           SKY/WX    TMP DP  RH WIND       PRES   REMARKS
LAS VEGAS      MOCLDY   103  42  12 N24       29.77R
SALT LAKE CITY PTCLDY    85  40  20 SE7       29.94S
$$

NMZ009-TXZ055-300600-
NEW MEXICO-WEST TEXAS

CITY           SKY/WX    TMP DP  RH WIND       PRES   REMARKS
ALBUQUERQUE    PTCLDY    72  56  57 NW8       30.17R
EL PASO        MOCLDY    82  58  43 SE10      30.04R
$$


........................KEY........................
SKY/WX - SKY CONDITION/WEATHER
TMP    - TEMPERATURE IN FAHRENHEIT
DP     - DEW POINT IN FAHRENHEIT
RH     - RELATIVE HUMIDITY IN PERCENT
WIND   - DIRECTION AND SPEED IN MILES PER HOUR (MPH)
VRB    - VARIABLE WIND DIRECTION
PRES   - MEAN SEA LEVEL PRESSURE IN INCHES OF MERCURY
         F - FALLING PRESSURE   R - RISING PRESSURE
         S - STEADY PRESSURE
VSB    - VISIBILITY IN MILES
HX     - HEAT INDEX IN FAHRENHEIT
WCI    - WIND CHILL INDEX IN FAHRENHEIT
TC     - TEMPERATURE IN CELSIUS WHICH IS ALSO KNOWN AS
         TEMPERATURE IN CENTIGRADE
AFB    - AIR FORCE BASE
         LUKE AFB IS LUKE AIR FORCE BASE
         DAVIS-MONTHAN IS DAVIS-MONTHAN AIR FORCE BASE
NAS    - NAVAL AIR STATION
         EL CENTRO NAS IS EL CENTRO NAVAL AIR STATION
N/A    - NOT AVAILABLE





USA.gov is the U.S. government's official web portal to all federal, state and local government web resources and services.